Location: Ferchesar
(52.6477°N, 12.4298°E)
Time: 04:39:15
(UTC+02:00)

Vanguard 3 - Pass Details

Date: 03 March 2021
Orbit: 508 x 3262 km, 33.3° (Epoch: 15 April)

Event Time Altitude Azimuth Distance (km) Brightness Sun altitude
Rises 13:45:24 0° 203° (SSW) 7,182 13.2 28.2°
Reaches altitude 10° 13:52:07 10° 190° (S) 6,187 13.1 27.7°
Maximum altitude 14:04:28 21° 150° (SSE) 4,935 11.7 26.9°
Drops below altitude 10° 14:14:53 10° 109° (ESE) 5,172 11.2 26.1°
Sets 14:19:41 0° 95° (E) 5,757 11.2 25.7°
